SCP
0 0 0 0 0 0 0 0 0 0 0 0 0 0 0 0 0 0 0 0 0 0 0 0 0 0 0 0 0 0 0 0 0 0 0 0 0 0 0 0 0 0 0
0 0 0 0 0 0 0 0 0 0 0 0 0 0 0 0 0 0 0 0 0 0 0 0 0 0 0 0 0 0 0 0 0 0 0 0 0 0 0 0 0 0 0
0 0 0 0 0 0 0 0 0 0 0 0 0 0 0 0 0 0 0 0 0 0 0 0 0 0 0 0 0 0 0 0 0 0 0 0 0 0 0 0 0 0 0
0 0 0 0 0 0 0 0 0 0 0 0 0 0 0 0 0 0 0 0 0 0 0 -0 -0 -0 0 0 0 0 0 0 0 0 0 0 0 0 0 0 0 0 0
0 0 0 0 0 0 0 0 0 0 0 0 0 0 0 0 0 0 0 0 0 0 -0 0 -0 0 0 0 0 0 0 0 0 0 0 0 0 0 0 0 0 0 0
0 0 0 0 0 0 0 0 0 0 0 0 0 0 0 0 0 0 0 0 0 -0 0 0 0 0 0 0 0 0 0 0 0 0 0 0 0 0 0 0 0 0 0
0 0 0 0 0 0 0 0 0 0 0 0 0 0 0 0 0 0 0 0 0 -0 -0 -0 -0 0 0 0 0 0 0 0 0 0 -0 0 0 0 0 0 0 0 0
0 0 0 0 0 0 0 0 0 0 0 0 0 0 0 0 0 0 0 0 -0 -0 -0 -0 0 0 0 0 0 0 0 0 0 0 0 0 0 0 0 0 0 0 0
0 0 0 0 0 0 0 0 0 0 0 0 0 0 0 0 0 0 0 0 0 0 0 0 0 0 0 0 0 0 0 0 0 0 0 0 0 0 0 0 0 0 0
0 -0 0 0 0 0 0 0 0 0 0 0 0 0 0 0 0 0 0 0 0 0 0 0 0 0 0 0 0 0 0 0 0 0 0 0 0 0 -0 0 0 0 0
0 -0 0 0 0 0 0 0 0 0 0 0 0 0 0 0 0 0 0 0 0 0 0 0 0 0 0 0 0 0 0 0 0 0 0 0 0 0 0 0 0 0 0
0 -0 0 0 0 -0 0 0 0 0 0 0 0 0 0 0 0 0 0 0 0 0 0 0 0 0 0 0 0 0 0 0 0 0 0 0 0 0 0 0 0 0 0
0 0 0 -0 -0 -0 -0 -0 -0 -0 0 -0 0 0 0 0 0 -0 0 0 0 0 0 0 0 0 0 0 0 0 0 0 0 0 0 0 0 0 0 0 0 0 0
-0 0 -0 -0 -0 -0 -0 -0 -0 -0 -0 0 -0 0 0 0 0 0 0 0 0 0 0 0 0 0 0 0 0 0 0 0 0 0 0 0 0 0 0 0 -0 0 0
-0 -0 -0 -0 -0 -0 -0 -0 -0 -0 0 -0 -0 0 0 0 -0 0 0 0 0 0 -0 0 0 0 0 0 0 0 0 0 0 0 0 0 0 0 0 0 -0 0 0
-0 -0 -0 -0 -0 -0 -0 -0 -0 -0 -0 -0 -0 0 0 0 0 0 0 0 0 0 0 0 0 0 0 0 0 0 0 0 0 0 0 0 0 0 0 0 0 0 0
-0 -0 -0 -0 -0 -0 -0 -0 -0 -0 -0 -0 -0 0 0 0 0 -0 -0 0 0 0 0 -0 0 0 0 -0 -0 -0 0 0 0 0 0 0 0 0 0 0 0 0 0
-0 -0 -0 -0 -0 -0 -0 -0 -0 -0 -0 -0 -0 0 0 0 0 0 0 0 0 0 -0 0 0 0 0 0 0 0 0 0 0 0 0 0 0 -0 0 0 0 0 0
-0 -0 -0 -0 -0 -0 -0 -0 -0 -0 -0 -0 -0 0 -0 0 -0 0 0 0 0 0 0 0 0 -0 0 0 0 0 0 0 -0 0 0 0 0 0 0 0 0 0 0
-0 -0 -0 -0 -0 -0 -0 -0 -0 -0 -0 -0 -0 -0 0 0 0 -0 0 0 0 0 0 0 0 0 0 0 0 0 0 0 0 0 0 0 0 0 0 0 0 0 0
-0 -0 -0 -0 -0 -0 -0 -0 -0 -0 -0 -0 -0 0 0 0 0 0 0 0 -0 0 0 0 0 0 0 0 0 0 0 0 0 0 0 0 0 0 0 0 -0 -0 0
-0 -0 -0 -0 -0 -0 -0 -0 -0 -0 -0 -0 -0 -0 0 0 0 0 0 0 0 0 -0 0 0 0 0 0 0 0 0 0 0 -0 -0 -0 -0 -0 0 0 0 0 -0
-0 -0 -0 -0 -0 -0 -0 -0 -0 -0 -0 -0 -0 -0 0 0 -0 -0 0 0 0 0 0 0 0 -0 -0 -0 -0 0 0 0 -0 -0 -0 0 0 0 0 0 0 -0 -0
0 0 0 -0 -0 -0 -0 -0 -0 -0 -0 -0 -0 -0 -0 0 0 0 0 0 0 0 0 0 0 0 -0 -0 -0 -0 -0 -0 -0 0 -0 0 0 0 0 -0 -0 0 0
0 0 -0 -0 -0 -0 -0 0 -0 -0 -0 -0 -0 -0 -0 -0 0 0 0 0 0 0 0 0 0 0 -0 -0 -0 -0 0 0 0 -0 -0 0 0 0 0 0 0 0 0
0 0 0 0 0 -0 -0 -0 -0 0 -0 -0 0 0 0 0 0 0 0 0 0 0 0 -0 -0 0 -0 0 -0 -0 0 -0 -0 0 0 0 0 0 0 0 0 0 0
Wind_Speed_500mb
69 55 77 74 77 67 56 37 26 21 14 12 10 12 18 24 26 25 27 23 26 24 20 21 25 23 19 15 21 36 33 30 27 25 27 27 24 28 30 35 34 33 37
40 42 60 70 76 67 46 30 25 20 15 9 7 14 24 27 29 29 19 16 26 19 17 21 21 19 17 17 25 36 33 33 32 30 29 19 18 26 27 35 35 34 41
50 52 63 78 74 59 40 28 25 17 10 6 7 16 22 27 27 19 10 17 17 14 14 22 19 18 17 20 27 33 35 36 32 29 20 16 12 37 24 28 33 36 38
39 51 77 78 67 49 32 28 21 12 9 7 5 16 19 27 18 11 8 11 12 5 15 18 16 17 18 22 28 29 32 32 35 42 26 16 16 15 17 26 30 36 35
39 60 81 72 55 39 30 26 18 9 10 9 4 17 19 20 14 10 11 10 9 8 15 16 18 18 18 23 25 31 30 28 35 39 45 33 8 28 32 23 42 41 31
46 61 68 60 47 35 30 25 15 11 11 7 6 16 17 15 14 14 15 11 5 11 20 21 19 19 17 20 21 25 29 28 27 29 28 28 20 37 42 30 47 44 42
51 62 73 62 48 39 32 24 14 13 11 5 8 13 14 14 15 17 20 8 5 14 25 22 21 16 18 18 20 23 25 31 33 27 32 28 32 43 35 34 42 42 40
54 66 70 58 46 39 34 23 18 14 8 3 8 8 11 14 14 19 17 5 7 17 26 22 22 16 19 19 18 15 26 22 33 35 29 29 35 40 31 43 39 35 40
60 67 66 54 44 40 34 23 20 16 10 5 4 7 9 17 18 17 11 9 12 19 23 23 24 17 19 17 14 15 25 18 34 36 32 29 31 39 37 25 35 48 36
58 66 64 53 40 36 30 24 17 17 10 6 3 4 11 16 22 12 13 9 11 16 20 23 26 16 20 18 14 19 19 18 23 24 24 26 39 48 48 26 45 45 46
64 71 63 50 38 39 33 27 25 24 15 5 4 0 9 13 18 8 11 10 13 16 19 22 27 19 15 16 15 17 18 18 21 22 24 32 34 41 39 46 41 47 44
66 68 61 52 46 46 39 32 30 26 17 6 6 3 6 9 12 7 9 16 15 16 18 19 21 21 19 15 14 18 18 15 18 22 30 36 31 31 36 47 45 42 46
66 64 62 57 53 51 44 34 32 25 19 9 7 7 5 7 11 9 13 17 18 21 22 20 21 24 24 19 16 17 18 17 17 19 23 27 30 39 48 46 39 40 32
68 66 65 59 57 54 46 36 34 27 23 11 8 8 2 7 10 13 19 19 24 27 26 24 24 24 21 17 18 19 20 20 19 18 20 26 33 38 44 45 37 36 41
68 69 69 63 62 58 49 40 34 34 29 16 11 10 12 14 17 19 20 20 22 25 25 26 24 20 19 20 20 22 20 12 12 20 24 30 34 35 36 43 45 46 54
74 73 70 65 64 60 52 45 37 38 35 23 16 17 19 21 23 22 25 23 20 21 27 24 19 15 17 17 17 16 14 7 9 20 27 29 36 41 45 37 40 40 41
79 78 75 71 63 62 55 51 39 40 40 29 22 20 24 23 23 26 27 24 20 20 20 23 17 13 18 22 20 16 14 13 19 27 34 43 43 53 57 49 39 35 31
78 76 75 73 64 59 57 51 46 41 44 38 29 22 29 26 26 25 23 21 21 18 23 23 22 17 21 20 17 23 26 28 29 32 44 45 53 53 49 40 34 28 28
74 72 66 62 65 63 58 56 55 45 48 45 36 26 31 31 28 26 21 19 23 23 24 28 28 27 36 31 27 29 32 31 41 40 55 54 48 50 41 30 26 29 30
72 70 69 67 67 67 64 60 62 55 54 50 40 30 33 35 28 25 22 22 22 25 25 29 26 22 24 28 27 31 32 40 37 39 43 40 42 33 29 27 27 28 26
74 70 69 71 69 70 70 66 66 63 50 49 43 35 35 40 33 31 25 24 22 25 26 28 29 26 24 27 29 31 34 38 41 42 42 39 31 27 30 28 23 20 25
78 72 68 74 73 73 74 71 67 56 53 53 46 41 35 45 39 38 35 28 24 25 28 28 28 27 27 28 31 32 29 28 31 37 34 31 32 31 30 29 28 25 23
91 79 74 74 76 76 77 74 67 62 58 57 48 46 42 45 44 45 42 38 33 31 33 34 32 31 30 28 27 26 24 22 23 30 33 31 30 29 28 29 31 29 27
97 88 79 77 76 80 80 72 67 63 62 61 51 53 52 47 49 45 45 44 41 40 40 39 39 40 36 33 30 28 27 26 28 26 30 32 31 31 30 34 34 33 28
89 91 86 81 77 78 82 80 69 68 67 62 56 55 59 55 49 48 47 45 42 39 44 46 42 41 43 44 39 35 32 29 30 34 37 41 43 44 44 43 41 38 35
86 94 89 84 76 76 82 82 76 73 70 69 66 59 60 64 58 53 52 49 40 36 34 35 38 37 32 28 34 41 39 37 36 42 43 49 49 50 51 49 46 42 39
Wind_Direction_500mb
244 240 230 223 203 199 198 198 212 213 215 222 256 291 314 318 316 304 298 287 298 295 265 234 218 232 245 246 214 195 199 198 191 198 202 208 215 211 223 216 214 211 214
259 237 216 197 193 194 190 195 202 204 200 224 266 311 323 324 315 309 298 282 299 294 262 213 214 228 226 213 189 189 193 189 187 202 200 201 193 202 215 202 204 203 208
245 205 192 188 190 189 186 197 196 191 198 215 300 327 332 328 323 321 295 299 303 291 246 197 207 215 205 195 184 185 190 192 195 203 186 158 168 194 200 197 198 205 202
223 199 187 184 183 182 183 189 186 181 200 220 314 339 345 346 353 350 333 323 327 254 174 188 197 190 189 184 184 188 189 196 199 186 184 167 184 165 159 198 206 202 200
201 187 187 181 177 178 182 183 175 174 210 232 323 350 342 349 359 351 331 313 317 216 197 181 175 174 180 174 175 183 192 192 190 194 201 216 188 184 167 157 175 197 194
183 186 179 175 173 175 179 176 170 178 197 203 359 352 346 358 351 341 336 314 285 199 174 163 171 174 177 177 182 188 188 192 194 199 185 212 209 193 173 153 163 171 184
184 182 175 174 175 177 175 170 177 185 192 191 3 348 346 356 2 351 342 310 230 190 176 168 170 168 158 155 162 177 185 188 188 199 214 209 218 197 183 166 160 155 161
183 181 177 174 179 180 175 171 173 174 180 142 358 4 354 2 349 345 357 -0 183 175 176 170 173 159 160 162 170 181 184 193 199 205 211 206 206 194 189 211 192 160 156
184 181 176 180 181 180 178 177 172 181 184 139 57 24 17 9 359 357 37 86 125 158 166 173 173 169 176 172 174 180 186 185 183 198 202 199 200 192 199 174 216 181 151
182 179 180 181 181 181 178 182 178 192 176 155 105 23 22 16 14 31 75 96 124 145 167 170 169 173 181 185 185 181 187 191 191 192 197 201 198 181 170 198 188 196 179
181 182 182 181 176 180 184 188 191 197 188 185 190 209 10 24 9 59 51 72 139 143 153 173 184 189 188 183 166 174 180 180 178 189 190 182 180 179 190 179 187 190 185
183 184 181 180 181 185 187 192 191 192 185 187 188 206 26 41 30 44 80 93 120 139 151 159 176 179 169 160 167 171 170 187 176 176 183 183 185 185 180 182 182 179 175
184 183 184 184 188 189 190 192 189 186 187 178 159 169 26 52 34 66 109 95 107 123 130 139 148 151 147 142 151 159 155 152 150 152 164 174 168 169 174 178 164 167 159
185 184 186 190 193 193 193 191 189 188 193 174 172 172 153 100 61 98 118 105 111 121 130 133 137 140 143 144 139 141 148 147 144 149 158 166 163 166 172 164 154 150 165
188 189 191 193 197 195 193 190 190 189 196 185 170 162 150 117 98 109 131 122 117 124 129 135 139 148 146 144 145 133 128 132 141 147 162 164 165 168 164 152 141 139 138
192 193 196 197 198 197 193 190 190 191 197 193 170 158 147 124 113 112 125 115 119 139 134 139 146 160 161 169 176 179 169 164 192 163 167 164 165 148 145 148 144 149 144
195 196 199 199 199 198 193 189 186 189 197 193 180 164 160 142 133 123 116 117 117 139 145 147 150 153 187 172 176 189 196 199 160 162 162 161 154 161 151 142 144 141 147
199 201 201 202 202 199 195 189 187 190 198 194 186 176 169 162 155 141 128 114 115 120 146 132 119 98 137 140 153 139 145 148 137 141 161 145 146 147 143 143 150 151 144
204 201 200 201 203 200 195 191 191 194 198 196 190 182 179 173 171 165 154 133 124 119 134 140 137 123 100 113 122 130 139 139 140 133 146 135 135 142 145 147 142 144 143
207 203 201 203 206 203 197 193 195 197 199 198 194 185 184 181 181 178 167 150 133 128 126 139 144 142 128 119 120 131 139 145 146 156 161 155 152 153 155 146 140 149 143
210 209 205 206 206 203 199 198 198 202 198 198 195 188 188 187 189 189 181 166 150 152 144 141 139 137 141 142 145 142 145 145 147 153 162 168 176 175 168 158 147 154 151
209 209 210 211 208 205 202 202 204 201 198 197 194 192 188 189 191 194 190 189 181 171 171 170 161 155 149 145 146 146 148 159 167 167 165 166 166 169 173 174 173 187 199
207 211 212 214 211 207 204 205 208 202 198 198 196 193 194 189 190 195 194 195 201 199 187 189 188 182 174 169 168 165 165 169 168 173 175 178 179 179 177 181 195 208 214
206 207 211 214 212 209 208 210 208 202 199 199 198 195 200 194 192 193 201 204 204 206 203 195 195 198 197 193 191 190 191 187 186 184 185 189 191 189 192 196 199 206 205
209 208 212 216 216 211 209 210 210 205 200 200 199 199 204 204 199 202 204 208 215 218 211 207 202 199 205 210 212 210 207 205 204 204 201 198 200 199 196 197 199 199 204
209 207 212 216 215 212 211 211 209 208 203 201 201 201 204 210 211 211 212 216 218 220 226 230 225 217 218 214 218 216 213 214 212 209 210 206 204 202 199 201 204 210 218
Wind_Speed_850mb
69 55 77 74 77 67 56 37 26 21 14 12 10 12 18 24 26 25 27 23 26 24 20 21 25 23 19 15 21 36 33 30 27 25 27 27 24 28 30 35 34 33 37
40 42 60 70 76 67 46 30 25 20 15 9 7 14 24 27 29 29 19 16 26 19 17 21 21 19 17 17 25 36 33 33 32 30 29 19 18 26 27 35 35 34 41
50 52 63 78 74 59 40 28 25 17 10 6 7 16 22 27 27 19 10 17 17 14 14 22 19 18 17 20 27 33 35 36 32 29 20 16 12 37 24 28 33 36 38
39 51 77 78 67 49 32 28 21 12 9 7 5 16 19 27 18 11 8 11 12 5 15 18 16 17 18 22 28 29 32 32 35 42 26 16 16 15 17 26 30 36 35
39 60 81 72 55 39 30 26 18 9 10 9 4 17 19 20 14 10 11 10 9 8 15 16 18 18 18 23 25 31 30 28 35 39 45 33 8 28 32 23 42 41 31
46 61 68 60 47 35 30 25 15 11 11 7 6 16 17 15 14 14 15 11 5 11 20 21 19 19 17 20 21 25 29 28 27 29 28 28 20 37 42 30 47 44 42
51 62 73 62 48 39 32 24 14 13 11 5 8 13 14 14 15 17 20 8 5 14 25 22 21 16 18 18 20 23 25 31 33 27 32 28 32 43 35 34 42 42 40
54 66 70 58 46 39 34 23 18 14 8 3 8 8 11 14 14 19 17 5 7 17 26 22 22 16 19 19 18 15 26 22 33 35 29 29 35 40 31 43 39 35 40
60 67 66 54 44 40 34 23 20 16 10 5 4 7 9 17 18 17 11 9 12 19 23 23 24 17 19 17 14 15 25 18 34 36 32 29 31 39 37 25 35 48 36
58 66 64 53 40 36 30 24 17 17 10 6 3 4 11 16 22 12 13 9 11 16 20 23 26 16 20 18 14 19 19 18 23 24 24 26 39 48 48 26 45 45 46
64 71 63 50 38 39 33 27 25 24 15 5 4 0 9 13 18 8 11 10 13 16 19 22 27 19 15 16 15 17 18 18 21 22 24 32 34 41 39 46 41 47 44
66 68 61 52 46 46 39 32 30 26 17 6 6 3 6 9 12 7 9 16 15 16 18 19 21 21 19 15 14 18 18 15 18 22 30 36 31 31 36 47 45 42 46
66 64 62 57 53 51 44 34 32 25 19 9 7 7 5 7 11 9 13 17 18 21 22 20 21 24 24 19 16 17 18 17 17 19 23 27 30 39 48 46 39 40 32
68 66 65 59 57 54 46 36 34 27 23 11 8 8 2 7 10 13 19 19 24 27 26 24 24 24 21 17 18 19 20 20 19 18 20 26 33 38 44 45 37 36 41
68 69 69 63 62 58 49 40 34 34 29 16 11 10 12 14 17 19 20 20 22 25 25 26 24 20 19 20 20 22 20 12 12 20 24 30 34 35 36 43 45 46 54
74 73 70 65 64 60 52 45 37 38 35 23 16 17 19 21 23 22 25 23 20 21 27 24 19 15 17 17 17 16 14 7 9 20 27 29 36 41 45 37 40 40 41
79 78 75 71 63 62 55 51 39 40 40 29 22 20 24 23 23 26 27 24 20 20 20 23 17 13 18 22 20 16 14 13 19 27 34 43 43 53 57 49 39 35 31
78 76 75 73 64 59 57 51 46 41 44 38 29 22 29 26 26 25 23 21 21 18 23 23 22 17 21 20 17 23 26 28 29 32 44 45 53 53 49 40 34 28 28
74 72 66 62 65 63 58 56 55 45 48 45 36 26 31 31 28 26 21 19 23 23 24 28 28 27 36 31 27 29 32 31 41 40 55 54 48 50 41 30 26 29 30
72 70 69 67 67 67 64 60 62 55 54 50 40 30 33 35 28 25 22 22 22 25 25 29 26 22 24 28 27 31 32 40 37 39 43 40 42 33 29 27 27 28 26
74 70 69 71 69 70 70 66 66 63 50 49 43 35 35 40 33 31 25 24 22 25 26 28 29 26 24 27 29 31 34 38 41 42 42 39 31 27 30 28 23 20 25
78 72 68 74 73 73 74 71 67 56 53 53 46 41 35 45 39 38 35 28 24 25 28 28 28 27 27 28 31 32 29 28 31 37 34 31 32 31 30 29 28 25 23
91 79 74 74 76 76 77 74 67 62 58 57 48 46 42 45 44 45 42 38 33 31 33 34 32 31 30 28 27 26 24 22 23 30 33 31 30 29 28 29 31 29 27
97 88 79 77 76 80 80 72 67 63 62 61 51 53 52 47 49 45 45 44 41 40 40 39 39 40 36 33 30 28 27 26 28 26 30 32 31 31 30 34 34 33 28
89 91 86 81 77 78 82 80 69 68 67 62 56 55 59 55 49 48 47 45 42 39 44 46 42 41 43 44 39 35 32 29 30 34 37 41 43 44 44 43 41 38 35
86 94 89 84 76 76 82 82 76 73 70 69 66 59 60 64 58 53 52 49 40 36 34 35 38 37 32 28 34 41 39 37 36 42 43 49 49 50 51 49 46 42 39
Wind_Direction_850mb
244 240 230 223 203 199 198 198 212 213 215 222 256 291 314 318 316 304 298 287 298 295 265 234 218 232 245 246 214 195 199 198 191 198 202 208 215 211 223 216 214 211 214
259 237 216 197 193 194 190 195 202 204 200 224 266 311 323 324 315 309 298 282 299 294 262 213 214 228 226 213 189 189 193 189 187 202 200 201 193 202 215 202 204 203 208
245 205 192 188 190 189 186 197 196 191 198 215 300 327 332 328 323 321 295 299 303 291 246 197 207 215 205 195 184 185 190 192 195 203 186 158 168 194 200 197 198 205 202
223 199 187 184 183 182 183 189 186 181 200 220 314 339 345 346 353 350 333 323 327 254 174 188 197 190 189 184 184 188 189 196 199 186 184 167 184 165 159 198 206 202 200
201 187 187 181 177 178 182 183 175 174 210 232 323 350 342 349 359 351 331 313 317 216 197 181 175 174 180 174 175 183 192 192 190 194 201 216 188 184 167 157 175 197 194
183 186 179 175 173 175 179 176 170 178 197 203 359 352 346 358 351 341 336 314 285 199 174 163 171 174 177 177 182 188 188 192 194 199 185 212 209 193 173 153 163 171 184
184 182 175 174 175 177 175 170 177 185 192 191 3 348 346 356 2 351 342 310 230 190 176 168 170 168 158 155 162 177 185 188 188 199 214 209 218 197 183 166 160 155 161
183 181 177 174 179 180 175 171 173 174 180 142 358 4 354 2 349 345 357 -0 183 175 176 170 173 159 160 162 170 181 184 193 199 205 211 206 206 194 189 211 192 160 156
184 181 176 180 181 180 178 177 172 181 184 139 57 24 17 9 359 357 37 86 125 158 166 173 173 169 176 172 174 180 186 185 183 198 202 199 200 192 199 174 216 181 151
182 179 180 181 181 181 178 182 178 192 176 155 105 23 22 16 14 31 75 96 124 145 167 170 169 173 181 185 185 181 187 191 191 192 197 201 198 181 170 198 188 196 179
181 182 182 181 176 180 184 188 191 197 188 185 190 209 10 24 9 59 51 72 139 143 153 173 184 189 188 183 166 174 180 180 178 189 190 182 180 179 190 179 187 190 185
183 184 181 180 181 185 187 192 191 192 185 187 188 206 26 41 30 44 80 93 120 139 151 159 176 179 169 160 167 171 170 187 176 176 183 183 185 185 180 182 182 179 175
184 183 184 184 188 189 190 192 189 186 187 178 159 169 26 52 34 66 109 95 107 123 130 139 148 151 147 142 151 159 155 152 150 152 164 174 168 169 174 178 164 167 159
185 184 186 190 193 193 193 191 189 188 193 174 172 172 153 100 61 98 118 105 111 121 130 133 137 140 143 144 139 141 148 147 144 149 158 166 163 166 172 164 154 150 165
188 189 191 193 197 195 193 190 190 189 196 185 170 162 150 117 98 109 131 122 117 124 129 135 139 148 146 144 145 133 128 132 141 147 162 164 165 168 164 152 141 139 138
192 193 196 197 198 197 193 190 190 191 197 193 170 158 147 124 113 112 125 115 119 139 134 139 146 160 161 169 176 179 169 164 192 163 167 164 165 148 145 148 144 149 144
195 196 199 199 199 198 193 189 186 189 197 193 180 164 160 142 133 123 116 117 117 139 145 147 150 153 187 172 176 189 196 199 160 162 162 161 154 161 151 142 144 141 147
199 201 201 202 202 199 195 189 187 190 198 194 186 176 169 162 155 141 128 114 115 120 146 132 119 98 137 140 153 139 145 148 137 141 161 145 146 147 143 143 150 151 144
204 201 200 201 203 200 195 191 191 194 198 196 190 182 179 173 171 165 154 133 124 119 134 140 137 123 100 113 122 130 139 139 140 133 146 135 135 142 145 147 142 144 143
207 203 201 203 206 203 197 193 195 197 199 198 194 185 184 181 181 178 167 150 133 128 126 139 144 142 128 119 120 131 139 145 146 156 161 155 152 153 155 146 140 149 143
210 209 205 206 206 203 199 198 198 202 198 198 195 188 188 187 189 189 181 166 150 152 144 141 139 137 141 142 145 142 145 145 147 153 162 168 176 175 168 158 147 154 151
209 209 210 211 208 205 202 202 204 201 198 197 194 192 188 189 191 194 190 189 181 171 171 170 161 155 149 145 146 146 148 159 167 167 165 166 166 169 173 174 173 187 199
207 211 212 214 211 207 204 205 208 202 198 198 196 193 194 189 190 195 194 195 201 199 187 189 188 182 174 169 168 165 165 169 168 173 175 178 179 179 177 181 195 208 214
206 207 211 214 212 209 208 210 208 202 199 199 198 195 200 194 192 193 201 204 204 206 203 195 195 198 197 193 191 190 191 187 186 184 185 189 191 189 192 196 199 206 205
209 208 212 216 216 211 209 210 210 205 200 200 199 199 204 204 199 202 204 208 215 218 211 207 202 199 205 210 212 210 207 205 204 204 201 198 200 199 196 197 199 199 204
209 207 212 216 215 212 211 211 209 208 203 201 201 201 204 210 211 211 212 216 218 220 226 230 225 217 218 214 218 216 213 214 212 209 210 206 204 202 199 201 204 210 218